Overview Statistics Trail Chart Weather Telemetry Raw packets
 

This is the latest recevied weather packets stored in our database for station/object HS1AXC-1. If no packets are shown the sender has not sent any weather packets the latest 10 day(s).

<< 46 47 48 49 50 51 52 >>
Time Temp. Humidity Pressure Rain* Wind** Luminosity Snow
1787933531 32.78° C 88% 1009 hPa - - 0 W/m² -
1787932909 32.78° C 89% 1009 hPa - - 0 W/m² -
1787932288 32.78° C 89% 1009 hPa - - 0 W/m² -
1787931665 32.78° C 91% 1009 hPa - - 0 W/m² -
1787931043 33.33° C 95% 1010 hPa - - 0 W/m² -
1787930421 33.33° C 93% 1010 hPa - - 0 W/m² -
1787929799 33.33° C 92% 1010 hPa - - 0 W/m² -
1787929177 33.33° C 93% 1010 hPa - - 0 W/m² -
1787928492 33.33° C 93% 1009 hPa - - 0 W/m² -
1787927872 33.33° C 90% 1009 hPa - - 0 W/m² -
1787927248 32.22° C 93% 1009 hPa - - 0 W/m² -
1787926626 32.78° C 92% 1009 hPa - - 0 W/m² -
1787926004 32.78° C 90% 1009 hPa - - 0 W/m² -
1787925669 32.22° C 92% 1009 hPa - - 0 W/m² -
1787925047 32.78° C 89% 1008 hPa - - 0 W/m² -
1787924425 33.33° C 88% 1008 hPa - - 0 W/m² -
1787923803 32.78° C 91% 1008 hPa - - 0 W/m² -
1787923181 32.78° C 88% 1008 hPa - - 0 W/m² -
1787922750 32.78° C 89% 1008 hPa - - 0 W/m² -
1787922128 32.78° C 87% 1008 hPa - - 0 W/m² -
1787921506 32.78° C 86% 1007 hPa - - 0 W/m² -
1787920884 32.78° C 86% 1007 hPa - - 0 W/m² -
1787920262 32.78° C 86% 1007 hPa - - 0 W/m² -
1787919640 33.33° C 85% 1007 hPa - - 0 W/m² -
1787919018 32.22° C 89% 1007 hPa - - 0 W/m² -

* Rain since midnight (hover to see other rain measurements)
** Current wind speed in m/s (hover to see current wind gust speed)